TFFFTNCM

Guest
Details From TFFF - Martinique/Aime Cesaire Intl
To TNCM - St Maarten - Princess Juliana Intl
Flight Number -
Tags generated
Created
Modified
Stats Distance 252 nm / 467 km
Max Altitude 34,000 ft / 10,363 m
Waypoints 4
Social Downloads 0
Likes 0
Share VATSIM

Download

Looking for another format? Having issues loading an existing format? Contact us
Advertisement - Login to hide

Notes

Basic altitude profile: - Ascent Rate: 2100ft/min - Ascent Speed: 250kts - Cruise Altitude: 35000ft - Cruise Speed: 320kts - Descent Rate: 1700ft/min - Descent Speed: 250kts

Route

TFFF PPR UA312 ANU TNCM

ID Type Via Altitude Latitude Longitude Leg Dist Tot Dist Heading (true) Name
O TFFF APT - 0 ft / 0 m 14.59103˚ -61.00317˚ - 0 nm - Martinique/Aime Cesaire Intl
PPR DME - 34,000 ft / 10,363 m 16.26519˚ -61.54014˚ 105 nm 105 nm 343° / 343° POINTE A PITRE VOR-DME
ANU NDB UA312 (AWY-HI) 28,600 ft / 8,717 m 17.12588˚ -61.80017˚ 53 nm 159 nm 344° / 344° V C BIRD NDB
O TNCM APT - 0 ft / 0 m 18.04089˚ -63.10897˚ 92 nm 251 nm 306° / 306° St Maarten - Princess Juliana Intl

Altitude Profile

Advertisement - Login to hide

Weather


0- 5 10 15 20 25 30 35+ Temperature / ° C

Clouds and Precipitation
Forecast for 2017-12-15 18:00 UTC. Updated an hour ago

Ground ~20,000 ft ~40,000 ft Winds

TFFF

Details ICAO TFFF (FDF)
Name Martinique/Aime Cesaire Intl
Region France (Guadeloupe, Martinique, Saint Barthélemy, Saint Martin)
Timezone America/Martinique (UTC-4.0)
Stats Elevation 16 ft / 5 m (AMSL)
Location 14.591032° -61.003173°
Runways 1
Magnetic Variation 15.058° W

METAR

TFFF 151830Z AUTO 09012KT 050V110 9999 BKN029/// BKN043/// ///TCU 29/23 Q1014

Decode

TAF

Not found

Departure Runways

ID Width Length Bearing (true) Bearing (mag) Surface Threshold Offset Overrun Length
09 148 ft / 45 m 9,852 ft / 3,003 m 79.93° 94.99° Asphalt 0 ft / 0 m 0 ft / 0 m
27 148 ft / 45 m 9,852 ft / 3,003 m 259.94° 275.00° Asphalt 820 ft / 250 m 948 ft / 289 m

TNCM

Details ICAO TNCM (SXM)
Name St Maarten - Princess Juliana Intl
Region Caribbean Netherlands, Aruba, Curaçao, Sint Maarten
Timezone Unknown (UTC+0.0)
Stats Elevation 12 ft / 4 m (AMSL)
Location 18.040889° -63.108974°
Runways 1
Magnetic Variation 14.325° W

METAR

TNCM 151800Z 08014KT 050V110 9999 BKN021 30/21 Q1017 NOSIG RMK A3003

Decode

TAF

TAF TNCM 151720Z 1518/1618 07014G20KT P6SM VCSH SCT022 FM161000 05017KT P6SM VCSH SCT018 SCT040

Decode

Destination Runways

ID Width Length Bearing (true) Bearing (mag) Surface Threshold Offset Overrun Length
10 148 ft / 45 m 7,464 ft / 2,275 m 81.43° 95.76° Asphalt 0 ft / 0 m 151 ft / 46 m
28 148 ft / 45 m 7,464 ft / 2,275 m 261.44° 275.77° Asphalt 397 ft / 121 m 0 ft / 0 m

Popular Alternatives